Showing default

ERS 6, 608

Orbit data source: Space-Track

ERS 6, 608 is a payload satellite owned by USAF SSD (US) in LEO that was launched on Thu, 09 May 1963 UTC via an ATLAS AGENA B launch vehicle from the Air Force Western Test Range (AFWTR). Payload-class satellites include a variety of spacecraft equipped with specific instruments for various scientific and technological missions. These include communications satellites like Starlink; space stations such as the ISS; scientific satellites like the Hubble; Earth observation satellites from companies like Planet Labs, Umbra, and HawkEye 360; GPS; miniature CubeSats for education and research; and military/defense satellites.

Loading next visibility...
Identifier
608, 1963-014C
Orbit
LEO
Country
Flag of USUS
Related business
Manufacturer
TRW
Mission
Spacecraft
Bus & Motor
TRS, Unknown motor
Mass
1 kg wet, 1 kg dry
Launch date (UTC)
1963-05-09 (63 years ago)
Launch vehicle
ATLAS AGENA B
Launch site
Air Force Western Test Range (AFWTR)
Object type
Payload
Rocket body
Debris
Shape & HBR
TETRAHEDRON, 0.1 m
Radar Cross Section
Medium (>0.1 m² and <1 m²)

Expand to show TLE details & history
Last TLE update: 18 hours ago

TLE from 18 hours ago
0 ERS 6
1 00608U 63014C   26235.27732705  .00000028  00000-0  11603-1 0  9991
2 00608  87.3593 187.0532 0014188 287.4700  72.4604  8.65282521999309
Epoch: 2026-08-23T06:39Z
TLE epoch observation values (Epoch: 2026-08-23T06:39:21.057Z)
Latitude
0.00005°
Longitude
115.63977°
Altitude
3,641.986 km
Speed
6.309 km/s
True Right ascension
12h 28m 12s
True Declination
0° 00' 00"
Sunlit
Object was in daylight at epoch
Visualization orbit readout
Latitude
Unknown
Longitude
Unknown
Altitude
Unknown
Speed
Unknown
Apparent Right ascension
Unknown
Apparent Declination
Unknown
Sunlit
N/A
Visualization observer readout
Local Sidereal Time
15:53:01
Azimuth
Unknown
Elevation
Unknown
Doppler factor
Unknown
Orbital elements
Apogee altitude
3,656.106 km
Perigee altitude
3,627.673 km
Semi-major axis
10,020.027 km
Eccentricity
0.00142
Inclination
87.3593°
RAAN
187.0532°
Arg. of periapsis
287.47°
True anomaly
72.61551°
Mean anomaly
72.4604°
Eccentric anomaly
72.53795°
Mean motion
2.16391 °/min
Orbital period
166.37 mins
BSTAR
0.011603
Loading maneuver chart data...
Computing Atmospheric mass density...

Documentation

Showing up to 5 results
|